OE3CJB-13 Weather Reports


time (UTC)temp
C
wind
direction
speed
KPH
gust
KPH
rain 1hr
cm
rain 24hr
cm
rain mn
cm
humidity
%
barometer
mb
20260507074531 16 0.0 0.0 0.00 0.00 0.00 39 799.6
20260507073019 15 0.0 0.0 0.00 0.00 0.00 40 799.5
20260507071555 15 0.0 0.0 0.00 0.00 0.00 42 801.0
20260507070045 15 0.0 0.0 0.00 0.00 0.00 42 801.0
20260507064619 15 0.0 0.0 0.00 0.00 0.00 43 801.0
20260507063019 15 0.0 0.0 0.00 0.00 0.00 44 801.7
20260507061555 15 0.0 0.0 0.00 0.00 0.00 46 801.6
20260507060046 15 0.0 0.0 0.00 0.00 0.00 49 801.5
20260507054531 13 0.0 0.0 0.00 0.00 0.00 51 800.0
20260507053155 13 0.0 0.0 0.00 0.00 0.00 52 799.1
20260507051643 13 0.0 0.0 0.00 0.00 0.00 52 798.2
20260507050134 13 0.0 0.0 0.00 0.00 0.00 53 798.2
20260507044531 13 0.0 0.0 0.00 0.00 0.00 53 798.9
20260507043307 12 0.0 0.0 0.00 0.00 0.00 53 799.6
20260507041807 12 0.0 0.0 0.00 0.00 0.00 53 800.3
20260507040046 13 0.0 0.0 0.00 0.00 0.00 52 800.2
20260507034755 13 0.0 0.0 0.00 0.00 0.00 52 800.8
20260507033018 13 0.0 0.0 0.00 0.00 0.00 51 802.4
20260507031555 13 0.0 0.0 0.00 0.00 0.00 51 803.1
20260507030133 13 0.0 0.0 0.00 0.00 0.00 51 805.5
20260507024531 13 0.0 0.0 0.00 0.00 0.00 52 807.0
20260507023018 13 0.0 0.0 0.00 0.00 0.00 51 808.4
20260507021555 13 0.0 0.0 0.00 0.00 0.00 51 809.2
20260507020045 13 0.0 0.0 0.00 0.00 0.00 51 810.6
20260507014707 13 0.0 0.0 0.00 0.00 0.00 52 812.7
20260507013154 13 0.0 0.0 0.00 0.00 0.00 52 813.5
20260507011555 14 0.0 0.0 0.00 0.00 0.00 53 814.3
20260507010045 14 0.0 0.0 0.00 0.00 0.00 53 814.1
20260507004530 14 0.0 0.0 0.00 0.00 0.00 54 813.4
20260507003019 15 0.0 0.0 0.00 0.00 0.00 54 814.2
20260507001555 15 0.0 0.0 0.00 0.00 0.00 54 814.1
20260507000044 15 0.0 0.0 0.00 0.00 0.00 53 814.0
20260506234531 15 0.0 0.0 0.00 0.00 0.00 54 813.8
20260506233106 15 0.0 0.0 0.00 0.00 0.00 53 813.7
20260506231555 15 0.0 0.0 0.00 0.00 0.00 53 814.5
20260506230221 16 0.0 0.0 0.00 0.00 0.00 52 813.8
20260506224531 16 0.0 0.0 0.00 0.00 0.00 53 814.4
20260506223018 16 0.0 0.0 0.00 0.00 0.00 52 813.5
20260506221555 16 0.0 0.0 0.00 0.00 0.00 52 814.1
20260506220045 16 0.0 0.0 0.00 0.00 0.00 46 813.4
20260506214531 17 0.0 0.0 0.00 0.00 0.00 43 813.2
20260506213018 17 0.0 0.0 0.00 0.00 0.00 40 813.0
20260506211555 18 0.0 0.0 0.00 0.00 0.00 37 812.8
20260506210045 18 0.0 0.0 0.00 0.00 0.00 33 812.5
20260506204530 20 0.0 0.0 0.00 0.00 0.00 27 812.3
20260506203018 20 0.0 0.0 0.00 0.00 0.00 24 811.4
20260506201555 20 0.0 0.0 0.00 0.00 0.00 24 811.9
20260506200058 20 0.0 0.0 0.00 0.00 0.00 24 811.9
20260506194619 20 0.0 0.0 0.00 0.00 0.00 23 811.0
20260506193019 20 0.0 0.0 0.00 0.00 0.00 22 811.7
20260506191643 20 0.0 0.0 0.00 0.00 0.00 22 811.6
20260506190045 21 0.0 0.0 0.00 0.00 0.00 21 810.7
20260506184619 21 0.0 0.0 0.00 0.00 0.00 20 810.7
20260506183107 21 0.0 0.0 0.00 0.00 0.00 19 810.6
20260506181555 22 0.0 0.0 0.00 0.00 0.00 18 809.8
20260506180045 22 0.0 0.0 0.00 0.00 0.00 17 809.6
20260506174530 22 0.0 0.0 0.00 0.00 0.00 16 807.4
20260506173018 22 0.0 0.0 0.00 0.00 0.00 16 805.9
20260506171555 23 0.0 0.0 0.00 0.00 0.00 14 805.2
20260506170045 23 0.0 0.0 0.00 0.00 0.00 14 803.7
20260506164530 24 0.0 0.0 0.00 0.00 0.00 12 799.8
20260506163019 25 0.0 0.0 0.00 0.00 0.00 11 798.3
20260506161555 25 0.0 0.0 0.00 0.00 0.00 10 795.2
20260506160045 25 0.0 0.0 0.00 0.00 0.00 795.3
20260506154530 25 0.0 0.0 0.00 0.00 0.00 795.4
20260506153107 26 0.0 0.0 0.00 0.00 0.00 796.2
20260506151556 26 0.0 0.0 0.00 0.00 0.00 796.9
20260506150045 27 0.0 0.0 0.00 0.00 0.00 797.7
20260506144531 27 0.0 0.0 0.00 0.00 0.00 796.9
20260506143018 27 0.0 0.0 0.00 0.00 0.00 798.4
20260506141731 26 0.0 0.0 0.00 0.00 0.00 799.3
20260506140045 27 0.0 0.0 0.00 0.00 0.00 800.0
20260506134531 28 0.0 0.0 0.00 0.00 0.00 800.9
20260506133018 27 0.0 0.0 0.00 0.00 0.00 802.5
20260506131907 27 0.0 0.0 0.00 0.00 0.00 801.0
20260506130133 27 0.0 0.0 0.00 0.00 0.00 801.0
20260506124531 28 0.0 0.0 0.00 0.00 0.00 799.5
20260506123018 27 0.0 0.0 0.00 0.00 0.00 799.6
20260506121554 26 0.0 0.0 0.00 0.00 0.00 11 799.6
20260506120045 26 0.0 0.0 0.00 0.00 0.00 11 799.7
20260506114530 26 0.0 0.0 0.00 0.00 0.00 13 799.7
20260506113154 26 0.0 0.0 0.00 0.00 0.00 16 799.0
20260506111642 25 0.0 0.0 0.00 0.00 0.00 17 799.2
20260506110045 26 0.0 0.0 0.00 0.00 0.00 18 800.1
20260506104531 25 0.0 0.0 0.00 0.00 0.00 21 798.5
20260506103018 25 0.0 0.0 0.00 0.00 0.00 21 798.7
20260506101555 25 0.0 0.0 0.00 0.00 0.00 20 798.0
20260506100045 25 0.0 0.0 0.00 0.00 0.00 20 798.1
20260506094530 24 0.0 0.0 0.00 0.00 0.00 22 797.5
20260506093018 23 0.0 0.0 0.00 0.00 0.00 25 796.8
20260506091554 23 0.0 0.0 0.00 0.00 0.00 26 797.0
20260506090045 22 0.0 0.0 0.00 0.00 0.00 29 797.0
20260506084530 22 0.0 0.0 0.00 0.00 0.00 29 796.3
20260506083018 22 0.0 0.0 0.00 0.00 0.00 34 796.4
20260506081554 21 0.0 0.0 0.00 0.00 0.00 34 796.5